Time,TemperatureF,DewpointF,PressureIn,WindDirection,WindDirectionDegrees,WindSpeedMPH,WindSpeedGustMPH,Humidity,HourlyPrecipIn,Conditions,Clouds,dailyrainin,SoftwareType,DateUTC
2013-05-18 00:02:00,75.0,10.0,29.68,WNW,299,9.0,16.0,8,0.00,,,0.00,,2013-05-18 06:02:00,
2013-05-18 00:11:00,75.0,10.0,29.68,WNW,299,9.0,16.0,8,0.00,,,0.00,,2013-05-18 06:11:00,
2013-05-18 00:22:00,75.0,10.0,29.68,West,262,3.0,11.0,8,0.00,,,0.00,,2013-05-18 06:22:00,
2013-05-18 00:32:00,75.0,12.0,29.68,West,270,6.0,11.0,9,0.00,,,0.00,,2013-05-18 06:32:00,
2013-05-18 00:42:00,75.0,12.0,29.68,West,270,6.0,11.0,9,0.00,,,0.00,,2013-05-18 06:42:00,
2013-05-18 00:52:00,74.0,14.0,29.67,West,275,11.0,16.0,10,0.00,,,0.00,,2013-05-18 06:52:00,
2013-05-18 01:01:00,74.0,14.0,29.67,NW,323,12.0,17.0,10,0.00,,,0.00,,2013-05-18 07:01:00,
2013-05-18 01:11:00,74.0,14.0,29.67,NW,323,12.0,17.0,10,0.00,,,0.00,,2013-05-18 07:11:00,
2013-05-18 01:21:00,73.0,11.0,29.67,NW,306,11.0,16.0,9,0.00,,,0.00,,2013-05-18 07:21:00,
2013-05-18 01:32:00,73.0,13.0,29.68,NW,309,6.0,11.0,10,0.00,,,0.00,,2013-05-18 07:32:00,
2013-05-18 01:42:00,73.0,13.0,29.68,NW,309,6.0,11.0,10,0.00,,,0.00,,2013-05-18 07:42:00,
2013-05-18 01:52:00,73.0,13.0,29.68,South,173,2.0,11.0,10,0.00,,,0.00,,2013-05-18 07:52:00,
2013-05-18 02:01:00,71.0,14.0,29.68,SSW,192,9.0,13.0,11,0.00,,,0.00,,2013-05-18 08:01:00,
2013-05-18 02:11:00,71.0,14.0,29.68,SSW,192,9.0,13.0,11,0.00,,,0.00,,2013-05-18 08:11:00,
2013-05-18 02:21:00,71.0,14.0,29.68,South,179,7.0,13.0,11,0.00,,,0.00,,2013-05-18 08:21:00,
2013-05-18 02:32:00,70.0,13.0,29.68,SSW,205,7.0,10.0,11,0.00,,,0.00,,2013-05-18 08:32:00,
2013-05-18 02:42:00,70.0,13.0,29.68,SSW,205,7.0,10.0,11,0.00,,,0.00,,2013-05-18 08:42:00,
2013-05-18 02:52:00,70.0,13.0,29.68,SSW,212,6.0,11.0,11,0.00,,,0.00,,2013-05-18 08:52:00,
2013-05-18 03:02:00,70.0,13.0,29.69,SW,214,8.0,13.0,11,0.00,,,0.00,,2013-05-18 09:02:00,
2013-05-18 03:11:00,70.0,13.0,29.69,SW,214,8.0,13.0,11,0.00,,,0.00,,2013-05-18 09:11:00,
2013-05-18 03:22:00,69.0,14.0,29.69,SSW,202,7.0,10.0,12,0.00,,,0.00,,2013-05-18 09:22:00,
2013-05-18 03:32:00,69.0,14.0,29.70,SSW,203,5.0,7.0,12,0.00,,,0.00,,2013-05-18 09:32:00,
2013-05-18 03:43:00,69.0,14.0,29.70,SSW,203,5.0,7.0,12,0.00,,,0.00,,2013-05-18 09:43:00,
2013-05-18 03:53:00,68.0,14.0,29.70,SSW,201,3.0,7.0,12,0.00,,,0.00,,2013-05-18 09:53:00,
2013-05-18 04:03:00,68.0,14.0,29.70,SSW,205,3.0,8.0,12,0.00,,,0.00,,2013-05-18 10:03:00,
2013-05-18 04:12:00,68.0,14.0,29.70,SSW,205,3.0,8.0,12,0.00,,,0.00,,2013-05-18 10:12:00,
2013-05-18 04:23:00,68.0,14.0,29.70,SSW,204,6.0,7.0,12,0.00,,,0.00,,2013-05-18 10:23:00,
2013-05-18 04:33:00,67.0,13.0,29.71,SSW,203,4.0,7.0,12,0.00,,,0.00,,2013-05-18 10:33:00,
2013-05-18 04:42:00,67.0,13.0,29.71,SSW,203,4.0,7.0,12,0.00,,,0.00,,2013-05-18 10:42:00,
2013-05-18 04:52:00,68.0,14.0,29.71,SSW,206,5.0,7.0,12,0.00,,,0.00,,2013-05-18 10:52:00,
2013-05-18 05:03:00,68.0,14.0,29.71,SSW,206,3.0,5.0,12,0.00,,,0.00,,2013-05-18 11:03:00,
2013-05-18 05:12:00,68.0,14.0,29.71,SSW,206,3.0,5.0,12,0.00,,,0.00,,2013-05-18 11:12:00,
2013-05-18 05:22:00,69.0,16.0,29.71,SSW,206,1.0,4.0,13,0.00,,,0.00,,2013-05-18 11:22:00,
2013-05-18 05:33:00,68.0,14.0,29.71,SSW,211,3.0,5.0,12,0.00,,,0.00,,2013-05-18 11:33:00,
2013-05-18 05:42:00,68.0,14.0,29.71,SSW,211,3.0,5.0,12,0.00,,,0.00,,2013-05-18 11:42:00,
2013-05-18 05:52:00,66.0,14.0,29.71,SW,223,3.0,8.0,13,0.00,,,0.00,,2013-05-18 11:52:00,
2013-05-18 06:02:00,66.0,15.0,29.71,SW,223,4.0,7.0,14,0.00,,,0.00,,2013-05-18 12:02:00,
2013-05-18 06:12:00,66.0,15.0,29.71,SW,223,4.0,7.0,14,0.00,,,0.00,,2013-05-18 12:12:00,
2013-05-18 06:23:00,65.0,15.0,29.72,SW,223,4.0,6.0,14,0.00,,,0.00,,2013-05-18 12:23:00,
2013-05-18 06:33:00,65.0,16.0,29.73,SW,233,2.0,5.0,15,0.00,,,0.00,,2013-05-18 12:33:00,
2013-05-18 06:42:00,65.0,16.0,29.73,SW,233,2.0,5.0,15,0.00,,,0.00,,2013-05-18 12:42:00,
2013-05-18 06:52:00,67.0,16.0,29.74,WNW,294,1.0,8.0,14,0.00,,,0.00,,2013-05-18 12:52:00,
2013-05-18 07:01:00,69.0,18.0,29.74,WNW,303,5.0,7.0,14,0.00,,,0.00,,2013-05-18 13:01:00,
2013-05-18 07:11:00,69.0,18.0,29.74,WNW,303,5.0,7.0,14,0.00,,,0.00,,2013-05-18 13:11:00,
2013-05-18 07:21:00,71.0,19.0,29.74,NNW,346,8.0,13.0,14,0.00,,,0.00,,2013-05-18 13:21:00,
2013-05-18 07:33:00,70.0,19.0,29.75,NNW,339,4.0,7.0,14,0.00,,,0.00,,2013-05-18 13:33:00,
2013-05-18 07:52:00,70.0,19.0,29.75,NW,317,5.0,8.0,14,0.00,,,0.00,,2013-05-18 13:52:00,
2013-05-18 08:03:00,70.0,19.0,29.75,NW,306,6.0,9.0,14,0.00,,,0.00,,2013-05-18 14:03:00,
2013-05-18 08:22:00,70.0,17.0,29.75,West,280,3.0,7.0,13,0.00,,,0.00,,2013-05-18 14:22:00,
2013-05-18 08:33:00,68.0,19.0,29.76,West,274,4.0,7.0,15,0.00,,,0.00,,2013-05-18 14:33:00,
2013-05-18 08:42:00,68.0,19.0,29.76,West,274,4.0,7.0,15,0.00,,,0.00,,2013-05-18 14:42:00,
2013-05-18 08:54:00,69.0,18.0,29.77,WSW,252,5.0,9.0,14,0.00,,,0.00,,2013-05-18 14:54:00,
2013-05-18 09:03:00,69.0,19.0,29.77,West,262,5.0,8.0,15,0.00,,,0.00,,2013-05-18 15:03:00,
2013-05-18 09:13:00,69.0,19.0,29.77,West,262,5.0,8.0,15,0.00,,,0.00,,2013-05-18 15:13:00,
2013-05-18 09:23:00,70.0,20.0,29.77,West,265,6.0,11.0,15,0.00,,,0.00,,2013-05-18 15:23:00,
2013-05-18 09:33:00,71.0,21.0,29.77,West,279,8.0,13.0,15,0.00,,,0.00,,2013-05-18 15:33:00,
2013-05-18 09:43:00,71.0,21.0,29.77,West,279,8.0,13.0,15,0.00,,,0.00,,2013-05-18 15:43:00,
2013-05-18 09:53:00,72.0,23.0,29.77,WNW,289,8.0,11.0,16,0.00,,,0.00,,2013-05-18 15:53:00,
2013-05-18 10:02:00,72.0,25.0,29.77,West,273,6.0,12.0,17,0.00,,,0.00,,2013-05-18 16:02:00,
2013-05-18 10:13:00,72.0,25.0,29.77,West,273,6.0,12.0,17,0.00,,,0.00,,2013-05-18 16:13:00,
2013-05-18 10:22:00,75.0,27.0,29.77,WNW,290,8.0,15.0,17,0.00,,,0.00,,2013-05-18 16:22:00,
2013-05-18 10:33:00,74.0,26.0,29.76,West,278,13.0,21.0,17,0.00,,,0.00,,2013-05-18 16:33:00,
2013-05-18 10:42:00,74.0,26.0,29.76,West,278,13.0,21.0,17,0.00,,,0.00,,2013-05-18 16:42:00,
2013-05-18 10:52:00,74.0,26.0,29.76,North,5,8.0,23.0,17,0.00,,,0.00,,2013-05-18 16:52:00,
2013-05-18 11:02:00,74.0,26.0,29.76,NW,319,10.0,22.0,17,0.00,,,0.00,,2013-05-18 17:02:00,
2013-05-18 11:12:00,74.0,26.0,29.76,NW,319,10.0,22.0,17,0.00,,,0.00,,2013-05-18 17:12:00,
2013-05-18 11:22:00,74.0,26.0,29.75,NW,313,14.0,23.0,17,0.00,,,0.00,,2013-05-18 17:22:00,
2013-05-18 11:32:00,74.0,26.0,29.74,WNW,290,21.0,31.0,17,0.00,,,0.00,,2013-05-18 17:32:00,
2013-05-18 11:42:00,74.0,26.0,29.74,WNW,290,21.0,31.0,17,0.00,,,0.00,,2013-05-18 17:42:00,
2013-05-18 11:52:00,75.0,26.0,29.73,WNW,302,22.0,33.0,16,0.00,,,0.00,,2013-05-18 17:52:00,
2013-05-18 12:01:00,75.0,24.0,29.74,WNW,286,21.0,32.0,15,0.00,,,0.00,,2013-05-18 18:01:00,
2013-05-18 12:12:00,75.0,24.0,29.74,WNW,286,21.0,32.0,15,0.00,,,0.00,,2013-05-18 18:12:00,
2013-05-18 12:21:00,75.0,23.0,29.73,West,281,22.0,32.0,14,0.00,,,0.00,,2013-05-18 18:21:00,
2013-05-18 12:32:00,76.0,23.0,29.73,West,277,22.0,27.0,14,0.00,,,0.00,,2013-05-18 18:32:00,
2013-05-18 12:42:00,76.0,23.0,29.73,West,277,22.0,27.0,14,0.00,,,0.00,,2013-05-18 18:42:00,
2013-05-18 12:52:00,77.0,24.0,29.72,WNW,294,18.0,26.0,14,0.00,,,0.00,,2013-05-18 18:52:00,
2013-05-18 13:02:00,76.0,22.0,29.72,WNW,287,22.0,31.0,13,0.00,,,0.00,,2013-05-18 19:02:00,
2013-05-18 13:12:00,76.0,22.0,29.72,WNW,287,22.0,31.0,13,0.00,,,0.00,,2013-05-18 19:12:00,
2013-05-18 13:22:00,77.0,22.0,29.71,WNW,292,21.0,27.0,13,0.00,,,0.00,,2013-05-18 19:22:00,
2013-05-18 13:32:00,77.0,22.0,29.71,WNW,284,20.0,33.0,13,0.00,,,0.00,,2013-05-18 19:32:00,
2013-05-18 13:42:00,77.0,22.0,29.71,WNW,284,20.0,33.0,13,0.00,,,0.00,,2013-05-18 19:42:00,
2013-05-18 13:52:00,78.0,19.0,29.70,WNW,292,21.0,37.0,11,0.00,,,0.00,,2013-05-18 19:52:00,
2013-05-18 14:02:00,78.0,21.0,29.70,WNW,295,15.0,28.0,12,0.00,,,0.00,,2013-05-18 20:02:00,
2013-05-18 14:11:00,78.0,21.0,29.70,WNW,295,15.0,28.0,12,0.00,,,0.00,,2013-05-18 20:11:00,
2013-05-18 14:22:00,79.0,22.0,29.68,West,275,19.0,26.0,12,0.00,,,0.00,,2013-05-18 20:22:00,
2013-05-18 14:32:00,79.0,22.0,29.68,NW,309,20.0,33.0,12,0.00,,,0.00,,2013-05-18 20:32:00,
2013-05-18 14:42:00,79.0,22.0,29.68,NW,309,20.0,33.0,12,0.00,,,0.00,,2013-05-18 20:42:00,
2013-05-18 14:52:00,81.0,22.0,29.68,WNW,292,13.0,21.0,11,0.00,,,0.00,,2013-05-18 20:52:00,
2013-05-18 15:01:00,80.0,16.0,29.67,NW,308,21.0,37.0,9,0.00,,,0.00,,2013-05-18 21:01:00,
2013-05-18 15:12:00,80.0,16.0,29.67,NW,308,21.0,37.0,9,0.00,,,0.00,,2013-05-18 21:12:00,
2013-05-18 15:21:00,81.0,11.0,29.67,WNW,295,23.0,35.0,7,0.00,,,0.00,,2013-05-18 21:21:00,
2013-05-18 15:32:00,80.0,13.0,29.67,NW,306,18.0,35.0,8,0.00,,,0.00,,2013-05-18 21:32:00,
2013-05-18 15:43:00,80.0,13.0,29.67,NW,306,18.0,35.0,8,0.00,,,0.00,,2013-05-18 21:43:00,
2013-05-18 15:53:00,80.0,16.0,29.65,WNW,289,21.0,37.0,9,0.00,,,0.00,,2013-05-18 21:53:00,
2013-05-18 16:03:00,80.0,16.0,29.65,West,280,29.0,37.0,9,0.00,,,0.00,,2013-05-18 22:03:00,
2013-05-18 16:12:00,80.0,16.0,29.65,West,280,29.0,37.0,9,0.00,,,0.00,,2013-05-18 22:12:00,
2013-05-18 16:23:00,81.0,14.0,29.65,NW,309,25.0,33.0,8,0.00,,,0.00,,2013-05-18 22:23:00,
2013-05-18 16:33:00,82.0,8.0,29.64,WNW,284,27.0,35.0,6,0.00,,,0.00,,2013-05-18 22:33:00,
2013-05-18 16:42:00,82.0,8.0,29.64,WNW,295,25.0,32.0,6,0.00,,,0.00,,2013-05-18 22:42:00,
2013-05-18 16:52:00,82.0,8.0,29.64,WNW,295,25.0,32.0,6,0.00,,,0.00,,2013-05-18 22:52:00,
2013-05-18 17:01:00,81.0,8.0,29.62,WNW,287,26.0,41.0,6,0.00,,,0.00,,2013-05-18 23:01:00,
2013-05-18 17:12:00,81.0,8.0,29.62,WNW,287,26.0,41.0,6,0.00,,,0.00,,2013-05-18 23:12:00,
2013-05-18 17:22:00,82.0,8.0,29.62,WNW,294,27.0,37.0,6,0.00,,,0.00,,2013-05-18 23:22:00,
2013-05-18 17:32:00,81.0,11.0,29.62,West,272,28.0,42.0,7,0.00,,,0.00,,2013-05-18 23:32:00,
2013-05-18 17:41:00,81.0,11.0,29.62,West,272,28.0,42.0,7,0.00,,,0.00,,2013-05-18 23:41:00,
2013-05-18 17:52:00,82.0,8.0,29.62,NW,310,28.0,39.0,6,0.00,,,0.00,,2013-05-18 23:52:00,
2013-05-18 18:01:00,81.0,11.0,29.61,WNW,296,31.0,40.0,7,0.00,,,0.00,,2013-05-19 00:01:00,
2013-05-18 18:11:00,81.0,11.0,29.61,WNW,296,31.0,40.0,7,0.00,,,0.00,,2013-05-19 00:11:00,
2013-05-18 18:21:00,82.0,12.0,29.61,West,281,24.0,42.0,7,0.00,,,0.00,,2013-05-19 00:21:00,
2013-05-18 18:32:00,81.0,17.0,29.62,NW,310,18.0,36.0,9,0.00,,,0.00,,2013-05-19 00:32:00,
2013-05-18 18:41:00,81.0,17.0,29.62,NW,310,18.0,36.0,9,0.00,,,0.00,,2013-05-19 00:41:00,
2013-05-18 18:51:00,81.0,14.0,29.61,WNW,300,29.0,41.0,8,0.00,,,0.00,,2013-05-19 00:51:00,
2013-05-18 19:01:00,81.0,14.0,29.61,WNW,292,32.0,43.0,8,0.00,,,0.00,,2013-05-19 01:01:00,
2013-05-18 19:11:00,81.0,14.0,29.61,WNW,292,32.0,43.0,8,0.00,,,0.00,,2013-05-19 01:11:00,
2013-05-18 19:21:00,81.0,14.0,29.62,NW,318,23.0,33.0,8,0.00,,,0.00,,2013-05-19 01:21:00,
2013-05-18 19:32:00,80.0,13.0,29.62,WNW,303,21.0,32.0,8,0.00,,,0.00,,2013-05-19 01:32:00,
2013-05-18 19:42:00,80.0,13.0,29.62,WNW,303,21.0,32.0,8,0.00,,,0.00,,2013-05-19 01:42:00,
2013-05-18 19:52:00,80.0,13.0,29.63,NW,314,25.0,31.0,8,0.00,,,0.00,,2013-05-19 01:52:00,
2013-05-18 20:01:00,79.0,13.0,29.63,NW,306,26.0,35.0,8,0.00,,,0.00,,2013-05-19 02:01:00,
2013-05-18 20:11:00,79.0,13.0,29.63,NW,306,26.0,35.0,8,0.00,,,0.00,,2013-05-19 02:11:00,
2013-05-18 20:21:00,78.0,12.0,29.63,NW,320,21.0,26.0,8,0.00,,,0.00,,2013-05-19 02:21:00,
2013-05-18 20:32:00,78.0,15.0,29.63,NW,315,23.0,31.0,9,0.00,,,0.00,,2013-05-19 02:32:00,
2013-05-18 20:42:00,78.0,15.0,29.63,NW,315,23.0,31.0,9,0.00,,,0.00,,2013-05-19 02:42:00,
2013-05-18 20:52:00,77.0,14.0,29.63,NW,323,26.0,32.0,9,0.00,,,0.00,,2013-05-19 02:52:00,
2013-05-18 21:01:00,77.0,14.0,29.64,NW,321,18.0,28.0,9,0.00,,,0.00,,2013-05-19 03:01:00,
2013-05-18 21:11:00,77.0,14.0,29.64,NW,321,18.0,28.0,9,0.00,,,0.00,,2013-05-19 03:11:00,
2013-05-18 21:22:00,76.0,13.0,29.64,NW,317,21.0,26.0,9,0.00,,,0.00,,2013-05-19 03:22:00,
2013-05-18 21:33:00,76.0,16.0,29.65,NW,325,18.0,24.0,10,0.00,,,0.00,,2013-05-19 03:33:00,
2013-05-18 21:42:00,76.0,16.0,29.65,NW,325,18.0,24.0,10,0.00,,,0.00,,2013-05-19 03:42:00,
2013-05-18 21:53:00,75.0,15.0,29.66,NW,311,16.0,24.0,10,0.00,,,0.00,,2013-05-19 03:53:00,
2013-05-18 22:02:00,74.0,16.0,29.67,NW,326,17.0,24.0,11,0.00,,,0.00,,2013-05-19 04:02:00,
2013-05-18 22:12:00,74.0,16.0,29.67,NW,326,17.0,24.0,11,0.00,,,0.00,,2013-05-19 04:12:00,
2013-05-18 22:23:00,74.0,16.0,29.67,NW,323,18.0,21.0,11,0.00,,,0.00,,2013-05-19 04:23:00,
2013-05-18 22:33:00,74.0,16.0,29.68,NW,319,15.0,21.0,11,0.00,,,0.00,,2013-05-19 04:33:00,
2013-05-18 22:42:00,74.0,16.0,29.68,NW,319,15.0,21.0,11,0.00,,,0.00,,2013-05-19 04:42:00,
2013-05-18 22:52:00,74.0,16.0,29.68,NW,315,15.0,20.0,11,0.00,,,0.00,,2013-05-19 04:52:00,
2013-05-18 23:02:00,73.0,17.0,29.69,NW,304,15.0,20.0,12,0.00,,,0.00,,2013-05-19 05:02:00,
2013-05-18 23:12:00,73.0,17.0,29.69,NW,304,15.0,20.0,12,0.00,,,0.00,,2013-05-19 05:12:00,
2013-05-18 23:22:00,73.0,17.0,29.69,WNW,301,15.0,19.0,12,0.00,,,0.00,,2013-05-19 05:22:00,
2013-05-18 23:32:00,73.0,17.0,29.69,WNW,301,16.0,18.0,12,0.00,,,0.00,,2013-05-19 05:32:00,
2013-05-18 23:42:00,72.0,17.0,29.69,WNW,301,15.0,18.0,12,0.00,,,0.00,,2013-05-19 05:42:00,
2013-05-18 23:51:00,72.0,17.0,29.69,WNW,301,15.0,18.0,12,0.00,,,0.00,,2013-05-19 05:51:00,